Regional Weather Roundup
Issued by NWS Goodland, KS

Home | Current Version | Previous Version | Graphics & Text | Print | Product List | Glossary On
Versions: 1 2 3 4 5 6 7 8 9 10 11 12 13 14 15 16 17 18 19 20 21 22 23 24 25 26 27 28 29 30 31 32 33 34 35 36 37 38 39 40 41 42 43 44 45 46 47 48 49 50
000
ASUS43 KGLD 282008
RWRGLD

GOODLAND FORECAST AREA HOURLY WEATHER ROUNDUP
NATIONAL WEATHER SERVICE GOODLAND KS
200 PM MDT FRI APR 28 2017

...OFFICIAL OBSERVATIONS...

CITY           SKY/WX    TMP DP  RH WIND       PRES   REMARKS
GOODLAND KS    CLOUDY    48  40  73 NE18G26   29.74R
HILL CITY KS   CLOUDY    47  42  83 N21       29.77R
IMPERIAL NEB   CLOUDY    39  34  82 E22       29.82R
MCCOOK NEB     CLOUDY    39  36  89 NE22      29.82R
AKRON CO       CLOUDY    44  34  67 E20G26    29.75R
BURLINGTON CO  NOT AVBL
LIMON CO       CLOUDY    53  27  36 E13G21    29.69R
$$

...UNOFFICIAL OBSERVATIONS...

CITY           SKY/WX    TMP DP  RH WIND       PRES   REMARKS
LENORA KS        N/A     42  32  68 MISG        N/A
NORTON KS      CLOUDY    39  34  81 N17G28    29.77F
SHARON SPRINGS   N/A     54  42  62 N12         N/A
TRENTON NEB      N/A     38  32  79 E12         N/A
KIT CARSON CO    N/A     54  37  52 MISG        N/A
$$




USA.gov is the U.S. government's official web portal to all federal, state and local government web resources and services.